Regional Weather Roundup
Issued by NWS Boston, MA

Home | Current Version | Previous Version | Text Only | Print | Product List | Glossary On
Versions: 1 2 3 4 5 6 7 8 9 10 11 12 13 14 15 16 17 18 19 20 21 22 23 24 25 26 27 28 29 30 31 32 33 34 35 36 37 38 39 40 41 42 43 44 45 46 47 48 49 50
000
ASUS41 KBOX 302110
RWRBOX

REGIONAL WEATHER ROUNDUP
NATIONAL WEATHER SERVICE TAUNTON MA
500 PM EDT TUE JUN 30 2015

NOTE:  "FAIR" INDICATES FEW OR NO CLOUDS BELOW 12,000 FEET WITH NO
SIGNIFICANT WEATHER AND/OR OBSTRUCTIONS TO VISIBILITY.  THE FOLLOWING
OBSERVATION LOCATIONS DO NOT REPORT PRESENT WEATHER...PROVINCETOWN...
SMITHFIELD...BLOCK ISLAND...KEENE...AND OXFORD.

MAZALL-302200-
EASTERN MASSACHUSETTS

CITY           SKY/WX    TMP DP  RH WIND       PRES   REMARKS
BOSTON         MOSUNNY   68  61  78 E10       29.96F
BEVERLY        MOSUNNY   74  58  57 SE10      29.95F
LAWRENCE       CLOUDY    76  61  59 VRB6      29.96S
BEDFORD        PTSUNNY   76  60  57 E12       29.93S
BLUE HILL        N/A     78  61  55 S10G16    29.95F
NORWOOD        PTSUNNY   80  62  54 S12G18    29.93F
MARSHFIELD     MOSUNNY   79  64  61 E6        29.96F
PLYMOUTH       SUNNY     80  58  46 SW9       29.96S
TAUNTON        SUNNY     81  58  45 SW9       29.95F
NEW BEDFORD    SUNNY     78  57  48 SW12      29.96S
$$

MAZALL-302200-
CAPE COD AND THE ISLANDS

CITY           SKY/WX    TMP DP  RH WIND       PRES   REMARKS
FALMOUTH       SUNNY     77  61  57 SW10      29.98S
HYANNIS        SUNNY     75  61  61 SW14      29.97S
CHATHAM        SUNNY     73  64  73 SW8       29.99F
PROVINCETOWN   MOSUNNY   81  19  10 SW13      29.97S
NANTUCKET      SUNNY     72  61  68 S6        29.99F
MARTHAS VNYRD  SUNNY     74  62  66 SW10      29.98F
$$

MAZALL-302200-
CENTRAL AND WESTERN MASSACHUSETTS

CITY           SKY/WX    TMP DP  RH WIND       PRES   REMARKS
WORCESTER      MOSUNNY   77  58  51 S7        29.97S
FITCHBURG      PTSUNNY   79  62  56 SW3       29.95F
ORANGE         LGT RAIN  73  64  73 N3        29.94F
SPRINGFIELD    PTSUNNY   79  59  50 VRB6      29.91F
WESTFIELD      CLOUDY    77  61  57 S5        29.92F
NORTH ADAMS    CLOUDY    69  65  86 VRB3      29.92F
PITTSFIELD     CLOUDY    68  66  93 CALM      29.92F
$$

RIZALL-302200-
RHODE ISLAND

CITY           SKY/WX    TMP DP  RH WIND       PRES   REMARKS
PROVIDENCE     PTSUNNY   80  56  43 SW12      29.96F
NEWPORT        SUNNY     75  61  61 S8        29.97F
BLOCK ISLAND   SUNNY     73  64  73 S9        29.98F
SMITHFIELD     SUNNY     79  55  44 SW6       29.96F
WESTERLY       SUNNY     74  62  66 S8        29.97F
$$

CTZALL-302200-
CONNECTICUT

CITY           SKY/WX    TMP DP  RH WIND       PRES   REMARKS
BRADLEY INTL   PTSUNNY   80  57  45 S15       29.91F
HARTFORD       PTSUNNY   79  57  46 S13G23    29.92F
BRIDGEPORT     MOSUNNY   78  59  51 S7        29.92F
DANBURY        PTSUNNY   76  56  49 SE8       29.93F
GROTON         SUNNY     74  62  66 SE10      29.95F
NEW HAVEN      PTSUNNY   76  61  59 S9        29.94S
CHESTER        NOT AVBL
MERIDEN        MOSUNNY   79  57  46 S14G21    29.93F
WILLIMANTIC    SUNNY     80  58  46 S9G17     29.95F
OXFORD         PTSUNNY   75  57  53 S12       29.96F
$$

MEZ002-015-021-024-NHZ003-005-008-011-012-014-VTZ005-008-302200-
NORTHERN NEW ENGLAND

CITY           SKY/WX    TMP DP  RH WIND       PRES   REMARKS
PORTLAND ME    MOSUNNY   73  58  59 S8        29.97F
BANGOR ME      MOSUNNY   75  60  59 S13       29.95S
CONCORD NH     CLOUDY    75  59  57 E5        29.94F
MANCHESTER NH  PTSUNNY   79  58  48 E6        29.92F
NASHUA NH      PTSUNNY   80  60  50 VRB5      29.94F
PORTSMOUTH NH  PTSUNNY   73  57  56 SE10      29.95F
JAFFREY NH     LGT RAIN  73  62  68 CALM      29.98R
KEENE NH       CLOUDY    70  63  78 CALM      29.95F
BURLINGTON VT  CLOUDY    66  58  75 S7        29.93F
MT. WASHINGTON LGT RAIN  48  48 100 S9          N/A  VSB 1/16
$$

NYZ052-076-302200-
EASTERN NEW YORK

CITY           SKY/WX    TMP DP  RH WIND       PRES   REMARKS
ALBANY         CLOUDY    68  64  87 CALM      29.91F
NEW YORK CITY  PTSUNNY   77  60  55 S20G26    29.89F
$$

ANZALL-302200-
MARINE OBSERVATIONS

STATION/POSITION TIME  TEMP    WIND        PRES    VSBY  WAVE
                       AIR SEA DIR/SP/G                  HT/PER
                 (UTC) (F)     (DEG/KT/KT) (MB)    (MI)  (FT/S)
BOSTON BUOY      2050   64 61  100/ 12/ 14 1014.7F         2/ 8
BUZZARDS BAY     2000          170/  4/  5 1016.1F
NANTUCKET SOUND  2050   69 65  210/  6/  8 1015.3F         1/ 8
MASS BAY-STELLWA 2004   63 59   90/  8/ 10 1014.1F  1 7/8  3/ 8
ISLE OF SHOALS   2100   64     130/ 15/ 16 1013.8F
S OF BLOCK IS    2008      67                N/A           4/ 8
$$

......................KEY.........................
  SKY/WX - SKY CONDITION/PRESENT WEATHER
  TMP    - TEMPERATURE IN FAHRENHEIT
  DWPT   - DEWPOINT IN FAHRENHEIT
  RH     - RELATIVE HUMIDITY IN PERCENT
  WIND   - DIRECTION AND SPEED IN MPH
  PRES   - MEAN SEA LEVEL PRESSURE IN INCHES OF HG
  WCI    - WIND CHILL INDEX
  VSB    - VISIBILITY IN MILES
  HX     - HEAT INDEX
  TC     - TEMPERATURE IN CELSIUS
  VRB    - VARIABLE WIND DIRECTION
  N/A    - NOT AVAILABLE



USA.gov is the U.S. government's official web portal to all federal, state and local government web resources and services.